Location: Maiden
(35.5760°N, 81.2120°W)
Time: 13:18:10
(UTC-04:00)

Hubble Space Telescope - Pass Details

Date: 14 June 2018
Orbit: 537 x 541 km, 28.5° (Epoch: 14 October)

Event Time Altitude Azimuth Distance (km) Brightness Sun altitude
Rises 23:06:01 0° 257° (WSW) 2,671 4.6 -22.5°
Reaches altitude 10° 23:08:29 10° 246° (WSW) 1,779 3.5 -22.8°
Enters shadow 23:09:34 16° 236° (SW) 1,437 2.9 -22.9°
